Flag for Canada Weather past 2 weeks in St. John's, Newfoundland and Labrador, Canada

59 °F

Scattered clouds.

Feels Like: 56 °F
Forecast: 48 / 58 °F
Wind: 18 mph from Southwest

Location: St. John's

Current Time: Oct 8, 2015 at 4:19:11 PM

Latest Report: Oct 8, 2015 at 3:30 PM

Visibility: 15 mi

Pressure: 29.66 "Hg

Humidity: 72%

Dew point: 50 °F

Location of St. John'sLocation

Historic Weather in St. John's — Graph


St. John's temperature yesterday

Maximum temperature yesterday: 50 °F (at 4:30 PM)
Minimum temperature yesterday: 45 °F (at 11:17 AM)
Average temperature yesterday: 46 °F

Past Weeks' High & Low Weather Summary

High73 °F (Sep 30, 1:30 PM)100% (Sep 24, 6:30 AM)30.33 "Hg (Sep 24, 6:30 AM)
Low36 °F (Sep 26, 9:30 PM)39% (Oct 6, 4:30 PM)29.67 "Hg (Oct 8, 2:30 PM)
Average51 °F80%30.10 "Hg
* Reported Sep 23 2:30 PM — Oct 8 2:30 PM, St. John's, Weather by CustomWeather, © 2015

Note: Actual official high and low records may vary slightly from our data, if they occured in-between our weather recording intervals... More about our weather records


St. John's weather history for previous 24 hours

Time TempWeatherWind HumidityBarometerVisibility
2:30 PM
Thu, Oct 8
59 °FBroken clouds.13 mph77%29.67 "Hg15 mi
1:30 PM57 °FPartly sunny.15 mph67%29.68 "Hg15 mi
12:30 PM57 °FPartly sunny.13 mph77%29.70 "Hg15 mi
11:30 AM54 °FOvercast.9 mph88%29.71 "Hg15 mi
10:30 AM54 °FOvercast.12 mph82%29.72 "Hg15 mi
9:30 AM52 °FPartly sunny.10 mph88%29.72 "Hg15 mi
8:30 AM50 °FScattered clouds.9 mph94%29.73 "Hg15 mi
7:30 AM48 °FPartly cloudy.9 mph94%29.73 "Hg15 mi
7:24 AM48 °FPartly cloudy.8 mph94%29.73 "Hg15 mi
6:30 AM48 °FDrizzle. Fog.13 mph94%29.73 "Hg3 mi
5:30 AM48 °FDrizzle. Fog.14 mph94%29.72 "Hg6 mi
4:30 AM46 °FPassing clouds.13 mph93%29.74 "Hg10 mi
3:30 AM46 °FPartly cloudy.12 mph93%29.76 "Hg15 mi
2:30 AM45 °FPartly cloudy.7 mph93%29.78 "Hg15 mi
1:30 AM45 °FOvercast.7 mph93%29.79 "Hg14 mi
12:30 AM45 °FPassing clouds.6 mph87%29.80 "Hg15 mi
11:30 PM
Wed, Oct 7
45 °FMostly cloudy.12 mph93%29.82 "Hg15 mi
10:30 PM45 °FMostly cloudy.10 mph93%29.82 "Hg15 mi
9:30 PM45 °FFog.10 mph93%29.82 "Hg6 mi
8:30 PM45 °FFog.8 mph93%29.83 "Hg7 mi
7:30 PM45 °FFog.7 mph93%29.83 "Hg6 mi
6:30 PM45 °FFog.8 mph93%29.82 "Hg6 mi
5:30 PM45 °FFog.8 mph93%29.81 "Hg2 mi
5:20 PM45 °FFog.10 mph93%29.81 "Hg4 mi
4:30 PM50 °FLow clouds.9 mph88%29.80 "Hg8 mi
Weather by CustomWeather, © 2015

See weather overviewHow to use our weather pages